Regional Weather Roundup
Issued by NWS Kansas City/Pleasant Hill, MO

Home | Current Version | Previous Version | Graphics & Text | Print | Product List | Glossary Off
Versions: 1 2 3 4 5 6 7 8 9 10 11 12 13 14 15 16 17 18 19 20 21 22 23 24 25 26 27 28 29 30 31 32 33 34 35 36 37 38 39 40 41 42 43 44 45 46 47 48 49 50

000
ASUS43 KEAX 280911
RWREAX

WEATHER ROUNDUP FOR EASTERN KANSAS AND NORTHWEST MISSOURI
NATIONAL WEATHER SERVICE KANSAS CITY/PLEASANT HILL MO
300 AM CST WED JAN 28 2015

KSZ040-057-103>105-MOZ028-029-037-043-281000-
...KANSAS CITY METROPOLITAN AREA...

CITY           SKY/WX    TMP DP  RH WIND       PRES   REMARKS
K.C. INTL      CLEAR     40  30  67 SE16      29.98F WCI  31
K.C. DOWNTOWN  CLEAR     45  29  53 VRB7      30.00F
LEES SUMMIT    CLEAR     41  29  62 SE10      30.00F WCI  35
OLATHE - IXD   CLEAR     44  30  57 SE14      29.99F
OLATHE - OJC   CLEAR     43  30  60 S15       29.98F
LAWRENCE       CLEAR     36  28  73 E8        29.98F WCI  30

$$

MOZ001>008-011>017-020>025-030>033-038>040-044>046-053-054-281000-
...NORTHERN AND CENTRAL MISSOURI...

CITY           SKY/WX    TMP DP  RH WIND       PRES   REMARKS
ST. JOSEPH     CLEAR     40  30  67 SE12      29.99F WCI  33
MOSBY          SUNNY     37  32  81 SE6       30.02F WCI  33
WARRENSBURG    CLEAR     39  30  70 SE9       30.04F WCI  33
WHITEMAN AFB   CLEAR     37  30  77 SE8       30.04F WCI  30
CLINTON        CLEAR     41  32  70 SE7       30.05F
SEDALIA        CLEAR     36  29  75 SE10      30.08F WCI  28
WARSAW         NOT AVBL
MARSHALL       CLEAR     37  32  81 E12       30.10S WCI  30
CHILLICOTHE      N/A     33  29  85 SE7       30.08F WCI  27
MOBERLY        CLEAR     30  27  86 E13       30.14F FOG     WCI  20
KIRKSVILLE     PTCLDY    28  27  96 SE12      30.13F FOG     WCI  18

$$

MOZ041-047>049-056>058-063>065-088>090-097-281000-
...EASTERN AND SOUTHERN MISSOURI...

CITY           SKY/WX    TMP DP  RH WIND       PRES   REMARKS
ST. LOUIS INTL CLEAR     31  25  78 SE8       30.25R WCI  23
SPIRIT OF STL  CLEAR     29  25  85 CALM      30.24R
COLUMBIA       CLEAR     32  29  88 SE12      30.14S WCI  23
JEFFERSON CITY CLEAR     34  29  82 E9        30.16F WCI  27
MEXICO         CLEAR    N/A N/A N/A SE8       30.16F HAZE
HANNIBAL       CLEAR     30  27  86 SE7       30.19F WCI  23
ROLLA          CLEAR     32  28  85 SE13      30.13F WCI  22
LEBANON        CLEAR     39  34  81 SE12      30.12S WCI  32
OSAGE BEACH    CLEAR     39  28  65 SE8       30.11F WCI  34
SPRINGFIELD    CLEAR     44  31  60 SE20G26   30.07F
BRANSON        PTCLDY    39  32  75 SE10      30.13F WCI  32
NEVADA         CLEAR     45  30  57 CALM      30.03F
JOPLIN         CLEAR     49  29  46 SE12      30.04S
WEST PLAINS    CLEAR     35  29  78 SE8       30.19F WCI  29

$$

IAZ060-094-KSZ022-034>040-054-083-096-NEZ052-066-093-281000-
...KANSAS...SOUTHEAST NEBRASKA AND IOWA...

CITY           SKY/WX    TMP DP  RH WIND       PRES   REMARKS
TOPEKA         CLEAR     40  29  64 SE7       29.96F
MANHATTAN      PTCLDY    40  32  73 CALM      29.92F
EMPORIA        CLEAR     41  33  73 S14       29.94F WCI  33
CHANUTE        CLEAR     41  32  70 SE9       30.00F
WICHITA        PTCLDY    44  34  67 S5        29.95S
OMAHA          PTCLDY    37  30  75 SE12      29.95F WCI  29
LINCOLN        MOCLDY    37  29  72 SE7       29.92F WCI  32
FALLS CITY     PTCLDY    36  29  75 SE6       29.94F WCI  31
LAMONI         CLEAR     30  28  92 SE8       30.05S WCI  22
DES MOINES     CLOUDY    30  27  88 SE13      30.08F FOG     WCI  20

$$



USA.gov is the U.S. government's official web portal to all federal, state and local government web resources and services.